Regional Weather Roundup
Issued by NWS

Home | Current Version | Previous Version | Graphics & Text | Print | Product List | Glossary Off
Versions: 1 2 3 4 5 6 7 8 9 10 11 12 13 14 15 16 17 18 19 20 21 22 23 24 25 26 27 28 29 30 31 32 33 34 35 36 37 38 39 40 41 42 43 44 45 46 47 48 49 50

000
ASUS43 KDMX 280608
RWRIA

WEATHER ROUNDUP FOR IOWA
NATIONAL WEATHER SERVICE DES MOINES IA
100 AM CDT THU JUL 28 2016

NOTE: "FAIR" INDICATES FEW OR NO CLOUDS BELOW 12,000 FEET WITH NO
SIGNIFICANT WEATHER AND/OR OBSTRUCTIONS TO VISIBILITY.

* - THESE STATIONS ARE NOT NWS STATIONS...THUS NOT UNDER NWS
QUALITY CONTROL.  THEY ALSO DO NOT REPORT WEATHER SUCH
AS PRECIPITATION OR FOG.

IAZ001>003-012>014-020>022-031>034-043>046-280700-
   NORTHWEST IOWA

CITY           SKY/WX    TMP DP  RH WIND       PRES   REMARKS
CARROLL *      MOCLDY    70  68  94 N6        29.98S
CHEROKEE *     PTCLDY    68  66  94 N6        30.01R
DENISON *      CLEAR     70  68  94 CALM      29.97S
LE MARS *      CLOUDY    70  64  83 N8        30.02F
SHELDON *      PTCLDY    64  64 100 CALM      30.01S
SIOUX CITY     CLOUDY    76  63  64 NE10      30.01R
6HR MIN TEMP:  73; 6HR MAX TEMP:  86;

SPENCER        CLEAR     67  64  90 N6        30.01S
6HR MIN TEMP:  66; 6HR MAX TEMP:  81;

STORM LAKE *   CLEAR     68  66  94 NE8       30.01S
$$

IAZ055>058-069>071-079>083-090>094-280700-
   SOUTHWEST IOWA

CITY           SKY/WX    TMP DP  RH WIND       PRES   REMARKS
ATLANTIC *     PTCLDY    68  66  94 CALM      29.98S
CLARINDA *     FOG       66  66 100 MISG      29.99S VSB 1/4
COUNCIL BLFS *   N/A     72  70  94 CALM      29.99S
CRESTON *      CLEAR     68  68 100 NW5       29.98F
HARLAN  *      CLEAR     66  66 100 CALM      30.02S
LAMONI         CLEAR     71  70  96 CALM      29.97R
6HR MIN TEMP:  71; 6HR MAX TEMP:  84;

RED OAK *      CLEAR     68  68 100 CALM      29.97F
SHENANDOAH *     N/A     70  70 100 CALM      29.98S
$$

IAZ047>049-059>061-072>074-084-280700-
   CENTRAL IOWA

CITY           SKY/WX    TMP DP  RH WIND       PRES   REMARKS
AMES           CLEAR     68  68 100 NW3       29.95F
6HR MIN TEMP:  68; 6HR MAX TEMP:  81;

ANKENY *         N/A    N/A N/A N/A MISG        N/A
BOONE *          N/A     72  68  88 N8        29.95F
CHARITON *       N/A    N/A N/A N/A MISG        N/A
DES MOINES     PTCLDY    76  69  79 CALM      29.94F
6HR MIN TEMP:  75; 6HR MAX TEMP:  84;

GRINNELL*      CLEAR     68  65  89 CALM      29.95F
KNOXVILLE *    CLEAR     72  68  88 CALM      29.94F
MARSHALLTOWN   PTCLDY    67  67 100 W5        29.94F
6HR MIN TEMP:  67; 6HR MAX TEMP:  80;

NEWTON *       CLEAR     70  68  94 CALM      29.95S
PELLA *        CLEAR     69  67  94 CALM      29.96S
PERRY *          N/A     69  69  98 NW3       29.96F
$$

IAZ004>006-015-016-023>025-035-036-280700-
   NORTH CENTRAL IOWA

CITY           SKY/WX    TMP DP  RH WIND       PRES   REMARKS
ALGONA *       CLEAR     66  64  94 N3        29.99F
ESTHERVILLE    CLOUDY    64  63  96 N5        30.00F
6HR MIN TEMP:  64; 6HR MAX TEMP:  79;

FORT DODGE *   CLEAR     68  64  88 N3        29.99F
MASON CITY     CLEAR     67  65  93 NW9       29.99F
6HR MIN TEMP:  67; 6HR MAX TEMP:  79; 6HR PCP:  0.29;

FOREST CITY *    N/A     66  66 100 NW9       29.98F
IOWA FALLS *     N/A     68  66  94 CALM      29.97S
$$

IAZ007>011-017>019-026>030-037>042-050>054-066-280700-
   NORTHEAST IOWA

CITY           SKY/WX    TMP DP  RH WIND       PRES   REMARKS
CEDAR RAPIDS   CLEAR     68  68 100 NW5       29.93F
6HR MIN TEMP:  67; 6HR MAX TEMP:  80;

CHARLES CITY * CLEAR     66  66 100 NW5       29.96S FOG
CLINTON *      MOCLDY    70  69  97 E5        29.93F
DECORAH *      MOCLDY    68  68 100 CALM      29.93S
DUBUQUE        CLEAR     70  66  87 CALM      29.94F
6HR MIN TEMP:  68; 6HR MAX TEMP:  81;

MONTICELLO *   FOG       68  68 100 CALM      29.93S VSB 1/4
OELWEIN *      CLEAR     66  66 100 S3        29.94F
WATERLOO       PTCLDY    70  67  90 W3        29.92F
6HR MIN TEMP:  68; 6HR MAX TEMP:  80;

$$

IAZ064-065-067-068-078-280700-
   EAST CENTRAL IOWA

CITY           SKY/WX    TMP DP  RH WIND       PRES   REMARKS
DAVENPORT      PTCLDY    71  69  93 NW5       29.93F
6HR MIN TEMP:  71; 6HR MAX TEMP:  82;

IOWA CITY      CLEAR     71  68  90 CALM      29.94F
6HR MIN TEMP:  70; 6HR MAX TEMP:  83;

MT. PLEASANT * CLEAR     74  73  98 CALM      29.93S
MUSCATINE *    CLEAR     72  70  94 CALM      29.92F
QUAD CITIES    MOCLDY    74  68  81 CALM      29.91F
6HR MIN TEMP:  73; 6HR MAX TEMP:  85;

$$

IAZ062-063-075>077-085>089-095>099-280700-
   SOUTHEAST IOWA

CITY           SKY/WX    TMP DP  RH WIND       PRES   REMARKS
BURLINGTON     CLOUDY    74  68  81 CALM      29.93R THUNDER
6HR MIN TEMP:  73; 6HR MAX TEMP:  85;

FAIRFIELD *    CLEAR     70  68  94 N8        29.93F
KEOKUK *       CLOUDY    75  68  78 E6G13     29.92R
CENTERVILLE *    N/A     66  66 100 CALM      29.96F
OTTUMWA        CLEAR     70  67  90 NE3       29.92F
6HR MIN TEMP:  69; 6HR MAX TEMP:  82;

WASHINGTON *   CLEAR     70  68  94 NW3       29.94F
$$

ABBREVIATIONS USED IN REMARKS
   TC - TEMPERATURES IN CELSIUS
  WCI - WIND CHILL INDEX
   HX - HEAT INDEX
  VSB - VISIBILITY
$$




USA.gov is the U.S. government's official web portal to all federal, state and local government web resources and services.